Location: ????????
(55.3155°N, 39.2900°E)
Time: 14:26:21
(UTC+00:00)

Cosmos 2360 Rocket - Pass Details

Date: 14 April 2024
Orbit: 832 x 846 km, 71.0° (Epoch: 23 May)

Event Time Altitude Azimuth Distance (km) Brightness Sun altitude
Exits shadow 00:09:56 23° 250° (WSW) 1,723 3.3 -16.4°
Maximum altitude 00:13:14 48° 314° (NW) 1,090 2.8 -16.1°
Drops below altitude 10° 00:18:42 10° 29° (NNE) 2,467 5.8 -15.6°
Sets 00:21:16 0° 35° (NE) 3,407 7.1 -15.3°
